Dewpoint
48 48 49 49 49 49 50 50 48 48 49 45 39 39 45 31 20 29 36 37 39 28 22 27 28 24 24 24 24 25 25 23 23 21 23 16 20 17 17 18 14 16 18 17 16 14 16 12 14 13 14 18 20 25 25 25 25 26 16 17 18 22 12 11 8 5 9 11 13 15 15 12 10 9 9 10 10 13 10 10 10 8 10 8 7 6 7
49 49 49 49 50 50 50 49 49 48 49 43 41 35 29 33 27 30 39 37 41 29 18 19 23 26 24 22 21 23 26 23 21 21 24 19 19 17 17 17 19 17 20 18 15 17 14 12 13 14 15 15 23 26 27 25 19 20 17 15 21 12 10 13 7 6 7 8 9 11 12 13 9 9 8 9 9 11 12 13 9 8 9 8 7 3 7
49 49 49 49 49 49 49 49 49 49 48 46 43 39 34 28 29 30 29 30 32 24 23 22 22 23 16 16 16 18 22 27 26 23 21 24 19 19 17 19 20 18 19 18 18 16 14 19 15 16 20 16 23 24 24 22 20 23 28 28 29 15 14 10 1 1 -2 -3 -1 5 9 14 11 7 9 11 12 11 12 6 7 4 7 5 4 3 7
49 48 48 49 50 50 50 49 49 49 48 46 39 34 40 31 15 27 28 27 26 25 28 26 20 20 19 21 13 17 16 17 24 26 23 23 22 21 20 20 19 17 15 14 14 14 15 15 18 18 19 19 16 21 18 24 20 27 26 25 17 16 13 10 11 6 2 9 12 10 13 10 11 12 11 13 12 9 11 9 6 4 7 6 5 6 6
49 49 49 49 50 50 49 48 48 49 48 46 38 34 33 27 23 20 23 32 26 19 24 24 23 18 17 17 16 21 17 15 17 26 16 22 21 20 21 21 18 17 16 13 13 15 13 15 20 17 18 21 18 16 19 20 22 27 28 21 17 14 14 13 13 14 13 9 9 8 10 8 7 11 12 12 12 13 13 7 5 8 6 -5 7 7 7
49 49 49 49 50 49 48 48 48 48 48 45 42 30 30 25 20 22 19 25 17 23 19 22 21 22 24 20 16 20 16 18 22 18 21 22 22 9 13 20 21 21 18 15 16 15 13 16 18 21 16 18 20 18 15 16 19 22 17 17 17 16 10 16 14 14 10 7 7 8 8 8 8 9 9 10 11 13 10 9 7 6 5 1 2 4 5
50 49 48 49 49 49 48 49 48 47 46 43 41 32 27 27 23 26 26 25 17 18 15 24 25 23 22 21 20 21 19 20 19 18 17 14 17 20 20 18 20 21 21 18 20 17 16 17 18 18 21 19 18 18 17 18 16 14 17 17 15 17 12 18 14 13 8 7 8 8 8 8 9 10 8 8 9 10 10 9 8 7 6 4 3 4 5
50 49 49 50 49 49 48 49 47 46 45 43 36 33 35 26 30 16 25 24 21 20 21 19 21 20 21 21 18 20 19 18 20 22 19 20 16 23 18 20 20 20 21 18 19 20 17 18 19 18 20 17 17 16 12 16 17 13 16 17 17 11 3 15 11 9 8 7 9 9 8 9 8 7 8 8 8 8 8 8 8 8 5 3 3 5 5
49 48 49 49 49 48 48 48 47 44 44 39 35 32 34 31 32 30 22 19 18 24 19 15 17 18 21 17 18 20 20 18 21 21 24 23 20 24 20 22 20 20 20 21 21 23 21 19 21 21 19 15 14 12 13 18 15 17 18 18 19 14 4 6 6 -7 -9 8 7 6 8 8 8 6 6 7 7 10 9 9 9 7 7 6 7 6 4
48 49 49 49 49 47 48 48 47 45 41 37 36 33 33 36 33 32 30 19 19 15 16 18 20 18 16 23 21 20 21 22 22 20 21 28 27 27 27 25 18 18 20 21 22 25 25 25 25 24 21 16 12 14 14 14 13 12 15 12 11 12 11 4 3 -8 -8 5 1 -1 6 7 6 6 6 8 7 8 8 9 8 6 5 7 4 2 4
48 49 49 49 49 47 47 47 47 45 44 40 38 34 35 38 35 30 29 22 20 19 18 18 19 16 19 21 21 22 23 23 21 16 17 23 24 26 27 24 17 19 21 23 28 28 27 27 22 17 11 9 8 8 8 8 11 13 12 12 10 10 10 5 10 -5 -5 -7 -9 1 0 -11 -8 7 7 7 6 7 7 5 4 4 6 5 5 5 5
48 48 48 48 49 46 45 46 46 44 40 38 39 35 35 33 32 31 29 21 18 21 21 19 18 20 21 22 21 20 22 23 23 25 21 22 24 26 22 19 20 20 24 28 28 24 22 20 15 13 14 12 10 9 9 5 5 7 9 9 8 6 9 6 7 -2 -6 1 -3 -4 -8 -9 5 9 8 8 8 8 8 6 6 5 6 6 6 5 4
47 48 48 48 48 47 43 44 44 43 40 39 40 36 35 31 35 29 27 23 18 20 19 19 21 22 22 23 21 20 21 23 22 26 23 22 23 26 27 25 23 22 26 27 26 23 16 13 10 14 15 12 12 14 12 8 5 4 4 6 9 3 2 4 -3 -2 -1 -6 -8 -9 -8 3 9 10 11 8 9 9 7 5 6 6 7 5 4 4 4
47 48 48 47 47 47 43 42 42 42 39 37 35 33 32 34 32 30 30 25 21 19 18 21 22 22 24 23 22 20 18 20 20 22 23 25 24 25 29 30 31 31 29 24 20 17 16 14 13 14 14 7 13 15 14 10 8 4 2 2 2 4 5 -0 -9 4 -7 -10 -9 -6 -11 -7 8 8 8 6 4 4 5 3 2 6 5 4 4 4 3
48 48 48 48 47 46 45 42 40 38 37 35 32 32 31 33 35 29 29 27 23 21 20 19 20 22 24 22 22 19 23 20 22 21 19 20 25 26 28 31 30 29 28 23 22 15 17 11 9 5 7 8 2 2 7 7 10 7 4 2 3 -1 -1 -7 -2 3 -4 -7 -10 -8 -8 -10 -6 7 8 9 8 8 8 8 6 5 4 4 4 3 3
48 48 48 48 47 45 44 44 41 39 37 33 31 30 30 31 33 31 30 24 24 18 23 26 27 24 24 22 23 21 20 23 20 19 20 18 21 28 29 30 30 26 15 12 14 14 9 9 5 3 1 3 11 6 6 4 1 8 5 1 -0 1 1 8 -1 -5 -3 -5 -10 -12 -12 -7 -4 6 8 8 8 8 9 5 3 5 5 4 4 3 3
48 48 48 48 45 44 43 42 41 41 44 39 32 31 29 32 34 33 30 27 24 20 26 27 28 26 27 19 21 21 23 20 20 16 15 18 17 20 21 26 27 27 22 12 12 10 10 4 -1 6 9 6 8 4 5 3 1 -0 4 6 3 7 2 1 -1 -0 -2 -3 -9 -11 -7 -5 -1 8 8 7 8 8 7 -4 -4 4 4 4 4 3 2
47 48 48 47 44 42 42 42 40 38 37 35 32 30 30 32 31 33 28 26 24 21 26 27 27 26 21 22 21 23 25 23 21 20 17 16 18 18 19 23 20 22 22 15 12 9 2 3 5 4 3 8 9 6 -2 1 1 3 0 4 2 4 3 -1 -5 -5 -2 2 -5 -6 -7 4 9 8 6 8 7 4 -4 -7 0 4 4 4 3 3 2
47 47 47 45 45 43 41 40 41 40 38 35 34 36 30 31 33 33 28 26 24 18 21 28 28 28 28 28 28 27 27 25 21 16 15 15 17 19 20 20 22 18 14 13 15 6 5 6 8 6 6 7 7 3 6 3 -0 5 5 -2 2 2 -2 -2 -6 -3 -6 -4 -6 -7 -6 -4 8 7 7 8 4 -4 -5 3 5 4 4 4 3 2 2
48 48 46 45 44 44 43 43 41 38 37 37 35 29 29 31 31 33 27 23 24 23 25 25 28 26 28 28 26 24 24 23 21 16 15 13 20 17 18 11 14 17 15 11 9 7 8 7 8 6 6 4 7 8 5 5 6 5 4 4 1 1 -4 -5 -6 1 -1 -4 -6 -8 -9 1 5 6 5 5 -0 -2 3 4 4 4 4 4 3 2 1
48 48 46 45 45 46 44 44 42 40 36 33 35 30 29 29 32 32 32 27 25 21 21 26 26 28 27 27 28 28 29 23 23 20 20 23 22 15 9 6 15 15 10 10 8 8 7 7 8 5 7 7 7 9 3 2 8 6 7 7 3 7 -4 -5 -2 0 -7 -9 -12 -10 0 1 6 4 1 2 3 5 5 4 3 4 4 3 2 2 -0
47 47 45 45 46 46 45 46 46 42 43 38 34 30 26 29 31 32 32 29 25 23 25 26 29 27 28 28 28 28 28 28 29 28 25 20 22 18 14 22 19 19 16 11 13 9 13 7 7 7 8 7 7 4 1 0 -5 7 2 1 -3 0 1 2 -6 1 -3 -9 -8 -8 3 3 6 6 5 5 6 7 5 5 4 4 4 1 1 0 -1
46 44 43 43 44 44 45 45 45 44 43 39 35 29 27 29 30 32 33 26 28 30 30 29 29 29 31 31 32 31 31 30 30 28 27 26 20 21 21 20 20 23 20 19 19 13 11 10 6 8 3 7 5 4 7 2 0 3 2 2 2 4 1 2 1 4 1 0 -1 -3 -1 2 5 7 7 6 6 5 4 4 4 4 3 2 0 -1 -3
45 44 43 46 46 43 43 45 44 43 41 40 35 28 29 29 29 30 27 27 26 24 27 30 24 24 24 25 28 30 31 29 31 29 29 28 19 15 18 24 25 22 22 21 16 15 9 9 9 5 6 5 6 4 -1 -4 3 2 5 4 7 5 5 3 4 4 -0 -5 5 2 2 5 5 4 6 6 6 5 4 4 4 3 2 -0 -2 -3 -3
45 45 45 46 46 45 44 43 43 40 39 37 34 33 32 32 33 33 33 21 19 24 18 20 22 24 27 28 30 30 30 31 31 30 30 29 27 20 19 23 26 21 23 25 13 13 8 11 10 8 7 8 10 3 2 2 4 0 -1 10 2 2 6 3 2 2 -3 -7 -2 1 3 3 4 5 5 4 4 4 4 4 3 2 0 -2 -3 -4 -4
44 44 43 44 44 43 43 43 43 43 42 41 36 32 30 29 35 31 29 26 23 25 22 17 21 24 28 27 26 27 29 31 31 31 30 29 29 29 27 27 25 21 19 17 20 14 6 6 -2 -4 5 5 7 5 4 1 1 3 1 4 -2 1 6 2 2 -0 -1 0 1 1 2 2 4 4 5 5 5 4 3 2 0 -1 -2 -2 -3 -4 -4
42 42 41 42 43 43 42 41 41 41 38 38 34 34 34 33 34 31 33 28 26 16 23 17 21 18 22 23 28 30 30 29 29 29 29 29 29 28 28 27 24 17 16 13 12 7 4 2 6 6 4 5 7 6 8 7 6 5 3 2 6 4 5 2 5 3 2 -3 -7 1 1 1 2 4 4 4 4 3 3 1 -1 -2 -2 -3 -3 -4 -5
43 44 44 43 42 41 39 41 41 39 37 35 34 33 33 33 33 34 33 30 34 25 18 16 19 21 26 23 29 29 29 29 29 28 28 28 27 27 27 26 20 21 13 14 14 11 4 10 7 4 3 8 7 7 4 3 4 7 5 4 4 0 1 2 1 -0 -1 -5 1 4 3 3 5 6 4 4 2 2 2 1 -0 -1 -2 -3 -4 -4 -5
44 44 44 45 44 44 41 42 42 41 40 34 31 32 30 34 35 35 33 32 30 25 23 23 21 21 19 17 28 26 28 29 27 27 27 26 25 26 25 23 16 16 13 12 9 8 8 9 8 9 8 10 8 5 6 3 3 2 0 4 5 4 2 2 -2 -1 -2 0 4 5 5 4 6 5 5 3 1 2 1 1 -0 -1 -2 -3 -4 -5 -6
44 44 43 43 43 43 44 45 43 43 40 34 35 27 26 26 32 37 36 33 30 28 20 15 14 13 16 21 21 22 25 25 26 25 25 24 22 21 19 17 21 19 19 15 14 10 14 13 14 13 16 18 13 7 3 -1 -0 -1 1 2 5 6 4 4 3 0 -0 5 6 6 6 7 6 5 3 2 1 1 0 -0 -1 -2 -3 -4 -4 -5 -7
44 43 43 43 41 42 44 45 46 41 37 33 32 22 20 17 27 35 38 30 30 26 17 21 13 11 17 20 25 19 24 28 24 23 22 21 20 20 22 22 24 21 14 13 14 14 14 12 14 14 15 20 14 6 7 -2 -0 6 2 1 3 5 5 5 5 5 5 6 6 6 6 6 5 2 0 0 -1 -1 -1 -1 -1 -0 -2 -3 -4 -6 -7
43 44 43 42 41 40 39 41 41 39 33 31 30 22 17 25 31 38 37 34 34 30 21 15 10 12 13 24 21 24 25 24 21 22 22 24 23 19 21 18 22 23 26 15 16 14 12 12 13 12 16 19 11 1 -1 1 2 10 4 1 3 4 6 6 6 6 7 7 6 7 6 6 4 6 7 0 -0 -1 -1 -1 -2 -2 -2 -3 -4 -6 -6
44 45 44 43 43 44 42 40 36 33 26 31 38 39 38 38 40 37 35 31 25 16 19 18 7 13 16 12 15 15 23 20 17 15 23 20 24 18 19 19 16 18 23 15 8 10 14 13 10 11 12 4 7 -0 2 7 7 7 5 5 4 5 7 8 7 7 7 6 7 7 6 7 8 5 3 1 0 -1 -1 -1 -2 -3 -3 -4 -4 -5 -6
46 45 46 45 44 43 42 40 39 38 37 33 28 25 30 36 34 34 28 26 19 15 18 15 7 6 10 17 10 16 18 16 17 13 13 19 19 17 15 13 17 16 10 12 10 13 12 10 9 11 11 10 7 6 6 6 7 7 6 4 5 7 8 8 7 7 7 6 6 7 7 4 2 2 1 1 -0 -1 -1 -1 -2 -2 -3 -4 -4 -5 -6
44 42 44 45 44 43 44 41 30 31 29 31 28 31 31 39 33 31 30 29 8 11 14 13 16 9 11 11 2 17 15 13 14 14 12 15 17 18 16 12 9 11 10 12 11 11 7 6 10 10 8 7 7 6 10 6 7 7 7 6 6 7 7 7 8 8 8 7 6 6 4 3 3 3 3 3 1 -0 -1 -2 -2 -2 -2 -3 -4 -4 -6
44 42 43 43 42 41 35 34 29 31 25 23 27 34 39 41 38 30 29 27 25 13 13 6 12 4 5 3 4 8 17 15 15 14 16 18 16 9 12 14 11 12 11 12 8 7 10 15 9 7 1 4 7 9 7 8 8 7 7 6 6 6 7 6 7 8 7 5 5 3 3 3 4 4 4 3 2 1 -1 -1 -2 -2 -2 -2 -3 -4 -6
43 43 41 38 34 30 23 20 33 27 23 29 31 35 37 40 33 33 29 29 25 23 16 9 15 5 7 7 10 17 17 14 11 12 8 12 11 12 11 13 9 20 19 9 3 5 8 8 7 -0 1 4 8 6 6 7 7 5 5 7 7 7 7 8 9 7 5 3 3 3 3 3 4 3 2 2 2 1 -0 -1 -1 -1 -1 -1 -1 -2 -5
42 39 32 29 27 20 15 18 22 27 37 38 36 30 29 28 14 15 20 17 15 23 12 15 7 9 13 13 6 14 14 9 12 6 7 5 14 9 7 11 14 16 6 -2 2 11 7 5 6 9 11 10 8 8 8 7 7 7 9 10 9 8 7 7 7 7 8 8 8 7 5 5 4 3 3 3 2 1 0 0 0 -0 -1 -1 -2 -3 -4
36 31 29 24 20 13 19 22 33 39 36 36 34 16 14 12 11 9 8 7 11 15 9 16 7 10 12 6 9 25 15 12 11 5 6 14 12 11 4 3 3 10 0 -2 2 5 3 -0 -2 -2 3 8 8 5 7 7 9 9 10 10 9 8 8 7 7 8 8 8 8 8 7 7 5 5 4 3 2 2 1 0 -1 -1 -2 -2 -2 -4 -4
31 24 19 17 15 20 33 34 35 33 33 18 14 14 6 9 20 5 7 8 5 5 9 9 10 15 13 11 9 12 23 13 8 9 8 10 20 4 4 3 1 5 0 -2 5 4 2 1 -7 -3 3 8 5 3 10 10 9 10 11 10 8 8 8 7 6 7 8 9 7 6 5 5 6 4 3 3 3 1 -0 -1 -1 -2 -2 -3 -2 -4 -5
27 22 21 16 26 26 28 29 27 23 17 12 7 5 5 5 8 6 5 5 2 4 8 9 11 11 11 14 13 12 20 17 10 7 9 11 15 13 5 5 7 -2 -4 -2 4 -1 -5 -2 -3 2 9 6 2 4 9 10 10 10 10 9 8 7 7 7 6 6 6 6 4 3 4 6 5 4 2 3 3 2 1 -0 -1 -2 -2 -3 -4 -5 -6
32 25 24 28 29 30 26 21 14 10 7 5 3 0 -0 3 6 9 6 4 4 3 11 11 7 10 12 14 16 15 13 11 10 7 7 4 18 8 2 -3 -4 -4 -6 -1 -2 -7 -2 -2 -4 2 10 4 3 5 9 10 9 9 8 8 7 7 6 7 6 5 5 6 5 4 3 4 3 3 3 3 2 2 1 -1 -2 -3 -4 -4 -5 -5 -8
35 35 33 23 18 15 15 14 13 7 1 3 0 -1 -0 -2 1 1 5 3 4 7 12 12 12 22 16 11 10 12 13 23 20 11 8 4 20 7 -3 -5 -6 -4 -2 -4 -4 -5 -3 -2 -1 6 6 5 5 4 7 10 10 8 8 8 7 6 6 6 6 6 5 6 7 6 6 4 2 3 1 1 -1 -4 -5 -5 -3 -3 -4 -6 -7 -8 -8
32 29 19 15 14 13 10 1 8 3 -0 -2 -1 -4 -3 3 14 2 2 8 7 11 10 9 9 10 11 11 8 11 15 21 25 0 -1 -2 -3 -3 -6 -3 -4 -1 -3 -3 -3 0 4 0 6 7 4 4 4 7 7 8 10 9 8 7 7 5 4 4 3 4 4 2 3 4 2 1 0 -2 -6 -5 -3 -1 -1 -3 -6 -7 -8 -9 -8 -8 -8
18 19 14 9 6 7 3 -1 4 -0 -4 -2 9 -0 1 -1 11 3 9 14 9 9 9 9 11 9 10 11 9 10 18 8 15 4 2 -2 -2 -4 -4 -2 -5 -7 -4 -3 -7 -4 -5 1 8 7 2 1 1 0 4 9 10 10 9 7 5 4 3 4 4 4 4 3 4 3 2 1 -0 -1 -4 -7 -7 -4 -2 -2 -3 -8 -9 -9 -9 -9 -9
17 13 6 3 -1 3 1 -4 -2 -3 -0 9 7 9 7 12 10 11 12 6 8 9 11 11 6 7 8 5 8 7 2 1 5 0 -3 -6 -3 -3 -3 -5 -5 -5 -7 -11 -7 -3 6 7 3 -1 0 1 -1 -0 2 7 10 9 8 9 7 5 4 4 6 5 5 4 3 2 1 1 0 0 -1 -3 -4 -8 -9 -7 -5 -6 -7 -8 -8 -8 -8
12 11 8 5 2 3 4 -1 1 4 3 6 10 12 15 11 12 11 11 7 9 10 7 4 7 7 8 8 8 5 1 -1 3 2 -2 -1 -2 -3 -1 -5 -5 -10 -7 -6 -5 -2 4 4 -1 0 -0 -1 1 7 9 10 10 9 9 9 8 6 4 4 4 4 3 4 4 2 0 -0 -0 -1 -1 -2 -3 -5 -7 -9 -9 -8 -8 -7 -7 -7 -9
10 10 9 3 1 3 1 7 3 7 7 5 6 5 7 6 10 10 10 8 11 12 12 9 7 8 7 6 5 5 1 -4 3 3 -3 -2 -5 -7 -11 -12 -9 -10 -7 -5 3 6 3 2 6 3 4 3 3 5 10 11 11 10 9 9 9 7 5 4 3 3 4 5 4 3 2 1 0 -1 -2 -2 -2 -2 -4 -5 -7 -9 -10 -9 -9 -10 -11
15 10 7 3 3 4 4 6 9 10 13 6 2 3 10 11 13 13 9 8 12 9 10 8 5 6 5 3 -0 -0 2 0 -2 -1 -4 -4 -4 -5 -9 -7 -12 -3 3 1 5 3 1 3 12 12 9 8 9 10 9 10 11 10 9 9 10 8 8 7 6 6 5 5 4 3 2 2 0 -1 -2 -4 -4 -4 -5 -5 -7 -10 -11 -11 -11 -11 -11
10 7 10 8 5 11 8 4 9 11 12 4 10 12 8 11 12 11 9 10 5 8 9 11 10 6 3 1 1 -8 -3 -7 -4 -3 -4 -4 -5 -9 -10 -8 -4 2 9 7 4 4 11 11 9 7 9 9 9 9 10 11 10 11 11 11 10 9 9 9 7 6 5 5 3 3 2 -0 -2 -3 -3 -3 -4 -4 -5 -7 -9 -10 -11 -12 -12 -12 -12
8 6 6 9 9 18 10 2 5 6 14 15 8 12 12 13 13 12 12 8 6 6 7 6 3 -1 1 -1 -5 0 -3 -4 -1 -2 -0 -2 -10 -9 -4 3 10 8 5 7 10 11 11 10 7 6 9 10 8 9 11 12 11 11 11 10 10 9 8 7 7 5 5 4 2 -2 -2 -2 -1 -1 -2 -4 -6 -8 -9 -10 -12 -12 -12 -12 -14 -14 -13
6 5 6 9 7 8 13 12 10 13 15 14 7 8 13 9 10 8 10 13 10 8 6 0 1 1 1 2 1 -2 -4 -2 -2 -3 -0 3 -4 -0 0 2 10 11 15 14 15 15 11 9 9 9 11 8 10 12 12 10 9 8 6 7 7 6 6 6 5 5 4 3 0 0 1 -1 -4 -6 -8 -8 -9 -10 -8 -6 -5 -9 -12 -13 -13 -13 -14